Weather History for KVPZ - May, 2014

Change the Weather History Date:

Tuesday, May 6, 2014

  Actual Average Record
Temperature  
Mean Temperature 54 °F 56 °F  
Max Temperature 71 °F 67 °F 90 °F (2004)
Min Temperature 36 °F 45 °F 36 °F (2014)
Degree Days  
Heating Degree Days 11 9  
Month to date heating degree days 88 60  
Since 1 July heating degree days 7055 6119  
Cooling Degree Days 0 1  
Month to date cooling degree days 0 2  
Year to date cooling degree days 0 7  
Growing Degree Days 4 (Base 50)    
Moisture  
Dew Point 36 °F    
Average Humidity 44    
Maximum Humidity 86    
Minimum Humidity 28    
Precipitation  
Precipitation T in 0.12 in 0.32 in (2002)
Month to date precipitation 0.10 0.81  
Year to date precipitation 5.72 9.99  
Sea Level Pressure  
Sea Level Pressure 29.95 in    
Wind  
Wind Speed 14 mph (East)    
Max Wind Speed 28 mph    
Max Gust Speed 34 mph    
Visibility 10 miles    
Events Rain    
T = Trace of Precipitation, MM = Missing Value Source: NWS Daily Summary

Daily Weather History Graph

Daily Weather History Graph

Search for Another Location

Airport or City:

Trip Planner

Search our weather history database for the weather conditions in past years. The results will help you decide how hot, cold, wet, or windy it might be!

Date:

Astronomy

May. 06, 2014 Rise Set
Actual Time 5:38 AM CDT 7:51 PM CDT
Civil Twilight 5:08 AM CDT 8:21 PM CDT
Nautical Twilight 4:30 AM CDT 8:59 PM CDT
Astronomical Twilight 3:49 AM CDT 9:41 PM CDT
Moon 11:55 AM CDT (5/6) 1:09 AM CDT (5/6)
Length of Visible Light 15h 13m
Length of Day
14h 12m
Waxing Crescent, 46% of the Moon is Illuminated
May 6
Waxing Crescent
May 6
First Quarter
May 14
Full
May 21
Last Quarter
May 28
New

Hourly Weather History & Observations

Time (CDT) Temp. Windchill Dew Point Humidity Pressure Visibility Wind Dir Wind Speed Gust Speed Precip Events Conditions
1:53 AM 39.9 °F 35.8 °F 35.1 °F 83% 29.98 in 10.0 mi NE 5.8 mph - N/A   Clear
2:53 AM 39.0 °F 34.0 °F 35.1 °F 86% 29.98 in 10.0 mi NE 6.9 mph - N/A   Clear
6:53 AM 44.1 °F 38.6 °F 36.0 °F 73% 30.02 in 10.0 mi East 10.4 mph - N/A   Clear
7:53 AM 48.9 °F - 35.1 °F 59% 30.02 in 10.0 mi East 11.5 mph - N/A   Clear
9:53 AM 59.0 °F - 36.0 °F 42% 30.02 in 10.0 mi East 18.4 mph 25.3 mph N/A   Clear
10:53 AM 62.1 °F - 33.1 °F 34% 30.01 in 10.0 mi East 18.4 mph 26.5 mph N/A   Clear
11:53 AM 64.9 °F - 35.1 °F 33% 30.00 in 10.0 mi ESE 15.0 mph 24.2 mph N/A   Clear
12:53 PM 66.9 °F - 34.0 °F 30% 29.98 in 10.0 mi East 17.3 mph 25.3 mph N/A   Clear
1:53 PM 70.0 °F - 35.1 °F 28% 29.96 in 10.0 mi ESE 16.1 mph 28.8 mph N/A   Clear
2:53 PM 70.0 °F - 36.0 °F 29% 29.94 in 10.0 mi ESE 13.8 mph 21.9 mph N/A   Clear
3:53 PM 70.0 °F - 36.0 °F 29% 29.92 in 10.0 mi ESE 13.8 mph - N/A   Clear
4:53 PM 70.0 °F - 37.0 °F 30% 29.90 in 10.0 mi East 20.7 mph 25.3 mph N/A   Clear
5:53 PM 68.0 °F - 37.9 °F 33% 29.89 in 10.0 mi East 16.1 mph 23.0 mph N/A   Clear
6:53 PM 66.0 °F - 37.0 °F 34% 29.89 in 10.0 mi ESE 19.6 mph 26.5 mph N/A   Clear
7:53 PM 64.0 °F - 37.9 °F 38% 29.89 in 10.0 mi ESE 17.3 mph 34.5 mph 0.00 in Rain Light Rain
8:53 PM 60.1 °F - 37.9 °F 44% 29.91 in 10.0 mi East 15.0 mph - 0.00 in   Partly Cloudy
9:53 PM 57.9 °F - 36.0 °F 44% 29.91 in 10.0 mi East 17.3 mph 23.0 mph N/A   Clear
10:53 PM 55.9 °F - 34.0 °F 44% 29.91 in 10.0 mi East 17.3 mph - N/A   Clear
11:53 PM 54.0 °F - 30.9 °F 41% 29.91 in 10.0 mi East 16.1 mph 26.5 mph N/A   Clear